カタログに戻る

STARLINK-30438

運用中通信VLEO
NORAD 58035·PAYLOAD·🇺🇸 United States

打ち上げ Oct 9, 2023 から Vandenberg Space Force Base

Loading…

次のパス (今後24時間)

TLE

最新Source: CelesTrak SupGP

元期: Sep 14, 2026, 22:15 UTC

1 58035C 23156H   26257.92756944  .00045883  00000+0  14756-2 0  2575
2 58035  53.1580 278.8372 0001329  86.0005  27.9281 15.31675157    17

AllMySatでSTARLINK-30438をリアルタイム追跡

Download on the App Store